• In Czech Republic
  • List of Countries
  • For 7 days
  • Water Temperature
  • Satellite Maps
  • Weather Map
  • Weather Widgets
  • user-avatar
    Login

    Hourly Weather Salzburg

    Today, 19 August, Saturday

    Time Temperature Precipitation Wind Pressure Humidity
    00:00 +12°C° 0.9 mm 2 mps 628 mmHg 95%
    01:00 +12°C° 0.9 mm 1 mps 628 mmHg 97%
    02:00 +12°C° 1.6 mm 1 mps 628 mmHg 97%
    03:00 +12°C° 1.6 mm 2 mps 628 mmHg 97%
    04:00 +12°C° 1.6 mm 2 mps 628 mmHg 98%
    05:00 +10°C° 4.5 mm 2 mps 628 mmHg 98%
    06:00 +10°C° 4.5 mm 2 mps 628 mmHg 98%
    07:00 +9°C° 4.5 mm 2 mps 628 mmHg 98%
    08:00 +10°C° 2.7 mm 1 mps 629 mmHg 97%
    09:00 +9°C° 2.7 mm 1 mps 629 mmHg 97%
    10:00 +9°C° 2.7 mm 1 mps 629 mmHg 97%
    11:00 +9°C° 2.4 mm 1 mps 629 mmHg 97%
    12:00 +9°C° 2.4 mm 1 mps 629 mmHg 97%
    13:00 +8°C° 2.4 mm 1 mps 629 mmHg 96%
    14:00 +8°C° 2.3 mm 1 mps 629 mmHg 96%
    15:00 +8°C° 2.3 mm 1 mps 629 mmHg 96%
    16:00 +8°C° 2.3 mm 1 mps 629 mmHg 96%
    17:00 +8°C° 1.6 mm 1 mps 629 mmHg 96%
    18:00 +7°C° 1.6 mm 1 mps 629 mmHg 96%
    19:00 +7°C° 1.6 mm 1 mps 629 mmHg 96%
    20:00 +7°C° 0.6 mm 1 mps 629 mmHg 96%
    21:00 +7°C° 0.6 mm 1 mps 629 mmHg 96%
    22:00 +7°C° 0.6 mm 1 mps 629 mmHg 95%
    23:00 +6°C° 0.1 mm 1 mps 629 mmHg 95%

    Tomorrow, 20 August, Sunday

    Time Temperature Precipitation Wind Pressure Humidity
    00:00 +6°C° 0.1 mm 1 mps 629 mmHg 95%
    01:00 +6°C° 0.1 mm 1 mps 629 mmHg 95%
    02:00 +6°C° 0.1 mm 1 mps 629 mmHg 95%
    03:00 +6°C° 0.1 mm 1 mps 629 mmHg 96%
    04:00 +6°C° 0.1 mm 1 mps 629 mmHg 96%
    05:00 +6°C° 0.2 mm 1 mps 629 mmHg 96%
    06:00 +7°C° 0.2 mm 1 mps 630 mmHg 96%
    07:00 +7°C° 0.2 mm 1 mps 630 mmHg 96%
    08:00 +8°C° 0.1 mm 1 mps 630 mmHg 91%
    09:00 +9°C° 0.1 mm 1 mps 631 mmHg 86%
    10:00 +10°C° 0.1 mm 1 mps 631 mmHg 80%
    11:00 +11°C° 0.1 mm 1 mps 631 mmHg 75%
    12:00 +12°C° 0.1 mm 2 mps 631 mmHg 70%
    13:00 +13°C° 0.1 mm 2 mps 632 mmHg 65%
    14:00 +13°C° 0.1 mm 2 mps 632 mmHg 64%
    15:00 +13°C° 0.1 mm 2 mps 632 mmHg 63%
    16:00 +13°C° 0.1 mm 2 mps 632 mmHg 62%
    17:00 +10°C° 0.1 mm 2 mps 631 mmHg 71%
    18:00 +9°C° 0.1 mm 1 mps 631 mmHg 81%
    19:00 +8°C° 0.1 mm 1 mps 630 mmHg 90%
    20:00 +7°C° 0 mm 1 mps 630 mmHg 92%
    21:00 +6°C° 0 mm 1 mps 630 mmHg 93%
    22:00 +5°C° 0 mm 1 mps 630 mmHg 95%
    23:00 +5°C° 0 mm 1 mps 630 mmHg 95%

    Day after tomorrow, 21 August, Monday

    Time Temperature Precipitation Wind Pressure Humidity
    00:00 +5°C° 0 mm 1 mps 630 mmHg 95%
    01:00 +5°C° 0 mm 1 mps 630 mmHg 95%
    02:00 +4°C° 0 mm 1 mps 630 mmHg 94%
    03:00 +4°C° 0 mm 1 mps 630 mmHg 93%
    04:00 +4°C° 0 mm 1 mps 630 mmHg 93%
    05:00 +5°C° 0 mm 1 mps 630 mmHg 90%
    06:00 +6°C° 0 mm 1 mps 630 mmHg 88%
    07:00 +7°C° 0 mm 1 mps 631 mmHg 86%
    08:00 +9°C° 0 mm 1 mps 631 mmHg 76%
    09:00 +10°C° 0 mm 2 mps 632 mmHg 66%
    10:00 +13°C° 0 mm 2 mps 633 mmHg 56%
    11:00 +13°C° 0 mm 2 mps 633 mmHg 52%
    12:00 +14°C° 0 mm 2 mps 633 mmHg 48%
    13:00 +15°C° 0 mm 2 mps 633 mmHg 43%
    14:00 +15°C° 0 mm 2 mps 632 mmHg 45%
    15:00 +15°C° 0 mm 2 mps 632 mmHg 47%
    16:00 +15°C° 0 mm 2 mps 632 mmHg 49%
    17:00 +12°C° 0 mm 2 mps 631 mmHg 61%
    18:00 +10°C° 0 mm 1 mps 631 mmHg 73%
    19:00 +8°C° 0 mm 1 mps 630 mmHg 85%
    20:00 +7°C° 0 mm 1 mps 630 mmHg 88%
    21:00 +6°C° 0 mm 1 mps 630 mmHg 91%
    22:00 +5°C° 0 mm 1 mps 630 mmHg 94%
    23:00 +5°C° 0 mm 1 mps 630 mmHg 93%

    22 August, Tuesday

    Time Temperature Precipitation Wind Pressure Humidity
    00:00 +5°C° 0 mm 1 mps 630 mmHg 92%
    01:00 +4°C° 0 mm 1 mps 630 mmHg 92%
    02:00 +4°C° 0 mm 1 mps 629 mmHg 90%
    03:00 +4°C° 0 mm 1 mps 629 mmHg 88%
    04:00 +4°C° 0 mm 1 mps 629 mmHg 86%
    05:00 +5°C° 0 mm 1 mps 629 mmHg 81%
    06:00 +6°C° 0 mm 1 mps 630 mmHg 77%
    07:00 +7°C° 0 mm 1 mps 630 mmHg 72%
    08:00 +10°C° 0 mm 1 mps 631 mmHg 62%
    09:00 +12°C° 0 mm 1 mps 632 mmHg 52%
    10:00 +15°C° 0 mm 1 mps 633 mmHg 42%
    11:00 +16°C° 0 mm 1 mps 633 mmHg 40%
    12:00 +18°C° 0 mm 1 mps 633 mmHg 37%
    13:00 +19°C° 0 mm 1 mps 633 mmHg 35%
    14:00 +19°C° 0 mm 1 mps 632 mmHg 37%
    15:00 +17°C° 0 mm 2 mps 632 mmHg 40%
    16:00 +17°C° 0 mm 2 mps 632 mmHg 42%
    17:00 +14°C° 0 mm 1 mps 631 mmHg 55%
    18:00 +12°C° 0 mm 1 mps 630 mmHg 68%
    19:00 +8°C° 0 mm 0 mps 629 mmHg 81%
    20:00 +8°C° 0 mm 1 mps 629 mmHg 81%
    21:00 +7°C° 0 mm 1 mps 629 mmHg 81%
    22:00 +7°C° 0 mm 1 mps 629 mmHg 81%
    23:00 +7°C° 0 mm 1 mps 628 mmHg 80%

    23 August, Wednesday

    Time Temperature Precipitation Wind Pressure Humidity
    00:00 +6°C° 0 mm 1 mps 628 mmHg 78%
    01:00 +6°C° 0 mm 1 mps 628 mmHg 76%
    02:00 +6°C° 0 mm 1 mps 628 mmHg 74%
    03:00 +6°C° 0 mm 1 mps 628 mmHg 72%
    04:00 +6°C° 0 mm 1 mps 628 mmHg 71%
    05:00 +7°C° 0 mm 1 mps 628 mmHg 66%
    06:00 +9°C° 0 mm 1 mps 629 mmHg 62%
    07:00 +10°C° 0 mm 1 mps 630 mmHg 58%
    08:00 +13°C° 0 mm 1 mps 630 mmHg 50%
    09:00 +15°C° 0 mm 1 mps 631 mmHg 43%
    10:00 +19°C° 0 mm 1 mps 632 mmHg 35%
    11:00 +20°C° 0 mm 1 mps 632 mmHg 34%
    12:00 +21°C° 0 mm 1 mps 632 mmHg 33%
    13:00 +22°C° 0 mm 1 mps 633 mmHg 32%
    14:00 +22°C° 0 mm 1 mps 632 mmHg 35%
    15:00 +21°C° 0 mm 1 mps 632 mmHg 38%
    16:00 +21°C° 0 mm 1 mps 632 mmHg 41%
    17:00 +18°C° 0 mm 1 mps 631 mmHg 52%
    18:00 +15°C° 0 mm 1 mps 630 mmHg 63%
    19:00 +12°C° 0 mm 1 mps 629 mmHg 75%
    20:00 +11°C° 0 mm 1 mps 629 mmHg 73%
    21:00 +11°C° 0 mm 1 mps 629 mmHg 72%
    22:00 +10°C° 0 mm 1 mps 630 mmHg 71%
    23:00 +9°C° 0 mm 2 mps 629 mmHg 69%

    24 August, Thursday

    Time Temperature Precipitation Wind Pressure Humidity
    00:00 +9°C° 0 mm 2 mps 629 mmHg 66%
    01:00 +8°C° 0 mm 2 mps 629 mmHg 64%
    02:00 +8°C° 0 mm 2 mps 629 mmHg 64%
    03:00 +8°C° 0 mm 2 mps 629 mmHg 64%
    04:00 +8°C° 0 mm 2 mps 629 mmHg 64%
    05:00 +10°C° 0 mm 1 mps 630 mmHg 63%
    06:00 +11°C° 0 mm 1 mps 630 mmHg 63%
    07:00 +12°C° 0 mm 1 mps 631 mmHg 63%
    08:00 +15°C° 0 mm 1 mps 632 mmHg 56%
    09:00 +19°C° 0 mm 1 mps 633 mmHg 49%
    10:00 +20°C° 0 mm 0 mps 634 mmHg 43%
    11:00 +22°C° 0 mm 1 mps 634 mmHg 42%
    12:00 +23°C° 0 mm 1 mps 633 mmHg 42%
    13:00 +23°C° 0 mm 1 mps 633 mmHg 41%
    14:00 +22°C° 0.2 mm 1 mps 633 mmHg 49%
    15:00 +20°C° 0.2 mm 2 mps 633 mmHg 57%
    16:00 +20°C° 0.2 mm 2 mps 632 mmHg 64%
    17:00 +19°C° 2.1 mm 1 mps 632 mmHg 73%
    18:00 +16°C° 2.1 mm 1 mps 631 mmHg 82%
    19:00 +13°C° 2.1 mm 1 mps 631 mmHg 91%
    20:00 +13°C° 0.5 mm 1 mps 630 mmHg 92%
    21:00 +12°C° 0.5 mm 1 mps 630 mmHg 92%
    22:00 +12°C° 0.5 mm 1 mps 630 mmHg 93%
    23:00 +11°C° 0 mm 1 mps 630 mmHg 93%
    Show more